When you browse on this site, cookies collect data to enhance your experience and personalize the content and advertising you see.
Visit our Privacy Policy to learn more. By continuing to use the site, you agree to this use of cookies and data.
  • In Romania
  • List of Countries
  • For 7 days
  • Water Temperature
  • Satellite Maps
  • Weather Map
  • Weather Widgets
  • user-avatar
    Login

    Hourly Weather Shrewsbury

    Today, 20 June, Thursday

    Time Temperature Precipitation Wind Pressure Humidity
    00:00 +9°C° 0 mm 2 mps 751 mmHg 93%
    01:00 +8°C° 0 mm 2 mps 751 mmHg 93%
    02:00 +8°C° 0 mm 2 mps 751 mmHg 94%
    03:00 +8°C° 0 mm 2 mps 751 mmHg 95%
    04:00 +9°C° 0 mm 3 mps 751 mmHg 94%
    05:00 +10°C° 0 mm 3 mps 752 mmHg 93%
    06:00 +11°C° 0 mm 3 mps 752 mmHg 93%
    07:00 +12°C° 0.1 mm 4 mps 752 mmHg 88%
    08:00 +13°C° 0.1 mm 4 mps 752 mmHg 84%
    09:00 +14°C° 0.1 mm 5 mps 752 mmHg 80%
    10:00 +14°C° 0.2 mm 5 mps 753 mmHg 76%
    11:00 +15°C° 0.2 mm 5 mps 753 mmHg 71%
    12:00 +15°C° 0.2 mm 5 mps 753 mmHg 67%
    13:00 +15°C° 0 mm 5 mps 753 mmHg 66%
    14:00 +15°C° 0 mm 5 mps 753 mmHg 65%
    15:00 +15°C° 0 mm 5 mps 753 mmHg 64%
    16:00 +15°C° 0 mm 5 mps 753 mmHg 68%
    17:00 +14°C° 0 mm 4 mps 753 mmHg 71%
    18:00 +14°C° 0 mm 4 mps 754 mmHg 75%
    19:00 +12°C° 0 mm 4 mps 754 mmHg 80%
    20:00 +10°C° 0 mm 3 mps 754 mmHg 84%
    21:00 +9°C° 0 mm 3 mps 755 mmHg 88%
    22:00 +8°C° 0 mm 2 mps 755 mmHg 90%
    23:00 +8°C° 0 mm 2 mps 756 mmHg 92%

    Tomorrow, 21 June, Friday

    Time Temperature Precipitation Wind Pressure Humidity
    00:00 +7°C° 0 mm 2 mps 756 mmHg 94%
    01:00 +7°C° 0 mm 2 mps 756 mmHg 94%
    02:00 +7°C° 0 mm 2 mps 756 mmHg 94%
    03:00 +7°C° 0 mm 2 mps 756 mmHg 95%
    04:00 +8°C° 0 mm 2 mps 757 mmHg 93%
    05:00 +9°C° 0 mm 2 mps 757 mmHg 91%
    06:00 +10°C° 0 mm 2 mps 757 mmHg 90%
    07:00 +11°C° 0 mm 3 mps 757 mmHg 84%
    08:00 +13°C° 0 mm 3 mps 758 mmHg 78%
    09:00 +14°C° 0 mm 3 mps 758 mmHg 72%
    10:00 +14°C° 0.1 mm 3 mps 758 mmHg 70%
    11:00 +16°C° 0.1 mm 2 mps 759 mmHg 69%
    12:00 +16°C° 0.1 mm 2 mps 759 mmHg 67%
    13:00 +16°C° 0.1 mm 2 mps 759 mmHg 67%
    14:00 +17°C° 0.1 mm 2 mps 759 mmHg 68%
    15:00 +17°C° 0.1 mm 2 mps 759 mmHg 69%
    16:00 +16°C° 0.1 mm 2 mps 759 mmHg 73%
    17:00 +16°C° 0.1 mm 2 mps 759 mmHg 77%
    18:00 +15°C° 0.1 mm 2 mps 760 mmHg 82%
    19:00 +14°C° 0 mm 2 mps 760 mmHg 83%
    20:00 +12°C° 0 mm 2 mps 760 mmHg 84%
    21:00 +11°C° 0 mm 1 mps 761 mmHg 86%
    22:00 +10°C° 0 mm 1 mps 761 mmHg 85%
    23:00 +10°C° 0 mm 1 mps 761 mmHg 85%

    Day after tomorrow, 22 June, Saturday

    Time Temperature Precipitation Wind Pressure Humidity
    00:00 +9°C° 0 mm 1 mps 761 mmHg 84%
    01:00 +8°C° 0 mm 1 mps 761 mmHg 85%
    02:00 +7°C° 0 mm 0 mps 761 mmHg 86%
    03:00 +6°C° 0 mm 0 mps 761 mmHg 87%
    04:00 +7°C° 0 mm 0 mps 761 mmHg 86%
    05:00 +8°C° 0 mm 0 mps 761 mmHg 85%
    06:00 +9°C° 0 mm 0 mps 761 mmHg 85%
    07:00 +12°C° 0 mm 1 mps 761 mmHg 81%
    08:00 +14°C° 0 mm 1 mps 761 mmHg 78%
    09:00 +15°C° 0 mm 1 mps 761 mmHg 75%
    10:00 +16°C° 0 mm 2 mps 760 mmHg 72%
    11:00 +17°C° 0 mm 2 mps 760 mmHg 69%
    12:00 +18°C° 0 mm 2 mps 760 mmHg 65%
    13:00 +19°C° 0 mm 2 mps 760 mmHg 66%
    14:00 +19°C° 0 mm 2 mps 760 mmHg 66%
    15:00 +19°C° 0 mm 2 mps 759 mmHg 66%
    16:00 +19°C° 0 mm 2 mps 759 mmHg 69%
    17:00 +20°C° 0 mm 1 mps 759 mmHg 72%
    18:00 +20°C° 0 mm 1 mps 759 mmHg 75%
    19:00 +18°C° 0.1 mm 1 mps 759 mmHg 79%
    20:00 +16°C° 0.1 mm 1 mps 759 mmHg 83%
    21:00 +15°C° 0.1 mm 1 mps 759 mmHg 87%
    22:00 +14°C° 0 mm 1 mps 759 mmHg 89%
    23:00 +13°C° 0 mm 2 mps 759 mmHg 91%

    23 June, Sunday

    Time Temperature Precipitation Wind Pressure Humidity
    00:00 +12°C° 0 mm 2 mps 759 mmHg 93%
    01:00 +12°C° 0 mm 2 mps 759 mmHg 93%
    02:00 +12°C° 0 mm 2 mps 759 mmHg 94%
    03:00 +10°C° 0 mm 2 mps 759 mmHg 95%
    04:00 +12°C° 0 mm 2 mps 759 mmHg 94%
    05:00 +12°C° 0 mm 2 mps 759 mmHg 94%
    06:00 +13°C° 0 mm 2 mps 759 mmHg 93%
    07:00 +13°C° 0 mm 3 mps 759 mmHg 90%
    08:00 +14°C° 0 mm 3 mps 759 mmHg 87%
    09:00 +17°C° 0 mm 3 mps 759 mmHg 84%
    10:00 +18°C° 0 mm 4 mps 759 mmHg 84%
    11:00 +19°C° 0 mm 4 mps 759 mmHg 83%
    12:00 +20°C° 0 mm 4 mps 759 mmHg 83%
    13:00 +20°C° 0.4 mm 4 mps 759 mmHg 83%
    14:00 +21°C° 0.4 mm 5 mps 758 mmHg 84%
    15:00 +21°C° 0.4 mm 5 mps 758 mmHg 85%
    16:00 +21°C° 0.7 mm 5 mps 758 mmHg 86%
    17:00 +20°C° 0.7 mm 5 mps 758 mmHg 88%
    18:00 +20°C° 0.7 mm 5 mps 758 mmHg 89%
    19:00 +19°C° 0.6 mm 5 mps 758 mmHg 91%
    20:00 +17°C° 0.6 mm 5 mps 758 mmHg 93%
    21:00 +17°C° 0.6 mm 5 mps 758 mmHg 94%
    22:00 +16°C° 0.8 mm 5 mps 758 mmHg 95%
    23:00 +16°C° 0.8 mm 5 mps 758 mmHg 96%

    24 June, Monday

    Time Temperature Precipitation Wind Pressure Humidity
    00:00 +15°C° 0.8 mm 4 mps 758 mmHg 96%
    01:00 +15°C° 1.4 mm 4 mps 757 mmHg 96%
    02:00 +15°C° 1.4 mm 5 mps 757 mmHg 97%
    03:00 +15°C° 1.4 mm 5 mps 756 mmHg 97%
    04:00 +15°C° 1 mm 5 mps 756 mmHg 96%
    05:00 +15°C° 1 mm 4 mps 756 mmHg 96%
    06:00 +15°C° 1 mm 4 mps 756 mmHg 96%
    07:00 +17°C° 0.2 mm 4 mps 756 mmHg 96%
    08:00 +18°C° 0.2 mm 4 mps 756 mmHg 96%
    09:00 +19°C° 0.2 mm 3 mps 756 mmHg 96%
    10:00 +20°C° 0.1 mm 3 mps 757 mmHg 94%
    11:00 +21°C° 0.1 mm 2 mps 757 mmHg 93%
    12:00 +23°C° 0.1 mm 2 mps 757 mmHg 91%
    13:00 +24°C° 0.6 mm 2 mps 757 mmHg 89%
    14:00 +24°C° 0.6 mm 2 mps 757 mmHg 86%
    15:00 +25°C° 0.6 mm 2 mps 758 mmHg 84%
    16:00 +25°C° 1 mm 2 mps 758 mmHg 86%
    17:00 +24°C° 1 mm 2 mps 758 mmHg 88%
    18:00 +24°C° 1 mm 2 mps 758 mmHg 90%
    19:00 +21°C° 0.4 mm 2 mps 758 mmHg 91%
    20:00 +21°C° 0.4 mm 1 mps 759 mmHg 91%
    21:00 +20°C° 0.4 mm 1 mps 759 mmHg 92%
    22:00 +19°C° 0 mm 1 mps 759 mmHg 92%
    23:00 +19°C° 0 mm 1 mps 759 mmHg 91%

    25 June, Tuesday

    Time Temperature Precipitation Wind Pressure Humidity
    00:00 +19°C° 0 mm 1 mps 759 mmHg 91%
    01:00 +18°C° 0.1 mm 2 mps 758 mmHg 93%
    02:00 +18°C° 0.1 mm 3 mps 758 mmHg 95%
    03:00 +18°C° 0.1 mm 4 mps 757 mmHg 97%
    04:00 +18°C° 0.3 mm 4 mps 757 mmHg 97%
    05:00 +18°C° 0.3 mm 4 mps 757 mmHg 97%
    06:00 +18°C° 0.3 mm 4 mps 757 mmHg 96%
    07:00 +19°C° 0.5 mm 4 mps 757 mmHg 96%
    08:00 +19°C° 0.5 mm 3 mps 757 mmHg 95%
    09:00 +20°C° 0.5 mm 3 mps 757 mmHg 95%
    10:00 +21°C° 0.1 mm 3 mps 757 mmHg 94%
    11:00 +22°C° 0.1 mm 3 mps 757 mmHg 93%
    12:00 +25°C° 0.1 mm 3 mps 757 mmHg 92%
    13:00 +25°C° 0.9 mm 3 mps 757 mmHg 90%
    14:00 +26°C° 0.9 mm 3 mps 757 mmHg 89%
    15:00 +27°C° 0.9 mm 3 mps 758 mmHg 87%
    16:00 +27°C° 0.4 mm 3 mps 758 mmHg 88%
    17:00 +27°C° 0.4 mm 3 mps 759 mmHg 88%
    18:00 +26°C° 0.4 mm 2 mps 759 mmHg 89%
    19:00 +24°C° 0 mm 2 mps 760 mmHg 90%
    20:00 +21°C° 0 mm 2 mps 760 mmHg 92%
    21:00 +19°C° 0 mm 2 mps 761 mmHg 94%
    22:00 +19°C° 0 mm 2 mps 761 mmHg 94%
    23:00 +19°C° 0 mm 2 mps 761 mmHg 94%
    Show more